Espace membre
Imprimable
Challenges > Delhalle - Seraing, 21/05/2006, BEL - Les 10 miles de Seraing
Liste des rapports > Delhalle - 16km - Classement scratch
Recherche: Page: [1]
159 Entrées
 
Les réclamations ne sont plus acceptées, les résultats sont considérés comme définitifs.
RangNrNomAgeIOCLigueEquipeRéelTempsTkmMoy.ScrPtsLocalité
1.411RODRIGUEZ Luis46BELCEPAL57:1657:183:34 16.8691024TUBIZE
2.1448HANOT Serge43BELUSBRRONVAU58:2458:263:38 16.5312999LATHUY
3.6HUYGHE Vincent43BELMOHATPVERT58:4058:443:39 16.4413994JEMAPPES
4.11DUBOIS Michel49BELHERV1:00:101:00:133:45 16.0416962WELKENRAEDT
5.2307TRIZZULLA Giacomo44BEL1:00:431:00:523:47 15.8720949LIÈGE
6.271GERLACHE Mathieu41BELCE CDO1:00:581:01:023:48 15.8223942DAUSSOULX
7.1185DARTE Eric42BELSMAC1:00:591:01:033:48 15.8224941LEUZE-EGHEZEE
8.1039SNAPS Jean-Francois45BELCABWNAC1:01:051:01:083:48 15.8025939NETHEN
9.1172DIEPENDAELE Rudi43BELACLOJC MARIEMO1:01:181:01:253:49 15.7327933LA HESTRE
10.131LEMAIRE Philippe40BELRONVAU1:01:341:01:373:50 15.6728927LASNE
11.217MELIN Thierry43BELRIWA1:01:441:01:503:51 15.6229924DILBEEK
12.1296COLLOT Joseph42BELANTILOB1:02:081:02:123:52 15.5332914GREZ-DOICEAU
13.1540VANDEVELDE Francis49BELFCHA1:02:111:02:163:53 15.5133912LINTER
14.1171HANUS Michel48BELUACBOUFFIOL1:02:371:02:423:54 15.4036903ROSELIES
15.541FILLEE Eric46BELUACDILAVILE1:02:571:03:013:55 15.3338895CHATELINEAU
16.467LENAERS Charles D.47BEL1:03:161:03:203:57 15.2540888LIEGE
17.689KRINGS Viktor46BELTVK HBG1:03:391:03:433:58 15.1641880BÜTGENBACH
18.2335LEKEU Gilbert48BELSPRIMONT1:04:031:04:114:00 15.0545871COMBLAIN-AU-PONT
19.1204BLACHERE Eric41BELAMAY1:03:491:04:224:00 15.0046874HUY
20.769LEMINEUR Vincent41BELRCNAMUR1:04:201:04:254:01 14.9947864CHAMPION
21.1370LEWILLION Philippe40BELFER1:04:231:04:314:01 14.9748862FRAMERIES
22.57LUCCHESE Serge47BELAMAY1:04:431:04:474:02 14.9150855AMAY
23.2302SIMONET Bernard45BELTRAINING71:05:011:05:124:04 14.8155846LA HULPE
24.1631CADO Paul46BELFLEU1:05:111:05:164:04 14.8057842LIGNY
25.1390PAULUS Philippe45BELESM1:05:351:05:424:05 14.7062832MONT-SUR-MARCHIENNE
26.2041NEUTELEERS Eric46BELSPRIMONT1:05:401:05:504:06 14.6764829COMBLAIN-AU-PONT
27.584UBIETA Didier45BELAMAY1:05:581:06:014:07 14.6366822VINALMONT
28.1388LECOCQ Marc45BELUACTHIMEON1:06:201:06:284:08 14.5368814PONT-A-CELLES
29.205RASSART Patrick48BELACLO1:06:391:06:464:09 14.4770808MORLANWELZ
30.1777MARTIN Eric43BEL1:06:381:07:104:11 14.3874805WANDRE
31.1552THIELTGEN Eric47BEL1:07:111:07:214:12 14.3477794NOBRESSART
32.193DI BIASE Renato41BELBOUFFIOL1:07:281:07:374:13 14.2880787COUILLET
33.485ROSILLON Dominique49BELARCH1:07:461:08:014:14 14.2086778SOREE
34.512DINJART Vincent42BEL1:08:061:08:174:15 14.1490770MEUX
35.728DUBREUCQ Andre43BELUACBOUFFIOL1:08:201:08:294:16 14.1095763DAMPREMY
36.2022FIFI Bernard49BEL1:08:331:08:464:17 14.0497758HERVE
37.2019BRUCCOLERI Paolo47BEL1:09:051:09:154:19 13.95105743NEUPRÉ
38.1737DETROZ Luc45BELRC NAMUR1:09:101:09:304:20 13.90109739VEDRIN
39.2364FIGEYS Manuel43BEL1:09:031:09:364:20 13.88110740THEUX
40.781OLIVIER Bob47BELACO1:09:351:09:394:20 13.87112730WAREMME
41.2248MOKHLES Mohamed41BEL1:09:381:09:434:20 13.85113729LIÈGE
42.623PISCART Pierre46BELONHOXY20001:10:011:10:104:22 13.76117720MONS
43.357CREMER Patrick48BELRT BRAIVES1:10:221:10:284:23 13.71119713HANNUT
44.360WAROUX Patrick43BELETCHIEVR1:10:191:10:404:24 13.67121712CASTEAU
45.2265DUMONT Dominique48BELTTF1:10:321:10:484:24 13.64124707AYWAILLE
46.2257LEDOUX Luc42BEL1:10:331:10:504:25 13.64125706OUGRÉE
47.43SEGHIN Vincent41BEL1:10:461:10:584:25 13.61129700THUIN
48.310ANTENUCCI Mauro49BELFLEUESM1:10:551:11:024:25 13.60130697GOSSELIES
49.1136GAUTIER Jacques44BEL1:11:071:11:184:26 13.55135690MEUX
50.2260JOBE Eric44BEL1:11:041:11:204:26 13.54136690OCQUIER
51.763RYCKEBOER Marc40BELRCB1:11:451:12:004:29 13.41146672LA HULPE
52.216NOSSAINT Philippe46BEL1:11:551:12:024:29 13.41148669ANDENNE
53.148BERTRAND Claude49BELSMAC1:11:561:12:144:30 13.37153665FLAWINNE
54.2042HANQUET Eddy44BELVERVIERS1:12:211:12:344:31 13.31158655ANDRIMONT
55.673CAMPION Sylvain43BEL1:12:261:12:394:31 13.29160652DIEPENBEEK
56.1828EVRARD Michel49BELARCH1:12:341:12:514:32 13.26163648WELLIN
57.1182GRANDMONT Andre45BELARCH1:12:391:13:054:33 13.22164646DINANT
58.269NENNEN Arnaud43BELSMAC1:12:531:13:094:33 13.20165642GELBRESSEE
59.2274VAN MELLAERT Pierre42BEL1:12:531:13:164:34 13.18166641OUGRÉE
60.526NORMAND Daniel45BELJCCS1:13:111:13:384:35 13.12175631RIENNE
61.1445MARIEN Jean-Luc48BELJOGGANS1:13:231:13:454:35 13.10177626BRUXELLES
62.2038DEPUTTER Francis40BELRRTCHATE1:13:091:14:084:37 13.03181627CHATELET
63.865SANTOCONO Jerome45BELACLO1:13:501:14:124:37 13.02182616MORLANWELZ
64.2314BONSIGNORE Vincent47BELACLO1:13:501:14:134:37 13.01183615LA LOUVIÈRE
65.812BATISTIC Patrick42BELRONVAU1:14:001:14:144:37 13.01184612FARCIENNES
66.2330MIGNON Dominique41BEL1:14:431:14:494:39 12.91192596LI?GE
67.1736LEFEVERE Alain47BELACA1:15:021:15:074:40 12.86193590SINT TRUIDEN
68.1495MERTENS Marc40BELSMAC1:14:581:15:164:41 12.83194591MALONNE
69.373VALCKX Geert43BELL.A.C. BERTEM1:15:141:15:244:42 12.81199583BERTEM
70.2299VERMEIR Staf43BELAVZK1:15:251:15:344:42 12.78203578AARSCHOT
71.1660GLEVICZKY Andre44BEL1:15:261:15:414:43 12.76204577MONT-SAINT-GUIBERT
72.2347COLLIN Didier41BEL1:15:051:15:454:43 12.75208580VERVIERS
72.2304DE RUETTE Alain48BEL1:15:051:15:454:43 12.75208580NANDRIN
74.2028THIRY Alain48BEL1:15:421:15:594:44 12.71218564AWIRS
75.1083LEONI Franco40BEL1:15:301:16:064:44 12.69221565VOTTEM
76.2234MARCHIONE Rosario49BEL1:15:301:16:074:44 12.69222564LIEGE
77.1307HARMEGNIES Michel45BELSPIBOR1:15:481:16:074:44 12.69223559HORNU
78.2328TEMPELS Alain45BEL1:15:561:16:084:44 12.69225555VERVIERS
79.2361LOPEZ Celso47BEL1:15:311:16:164:45 12.66227561ALLEUR
80.2354RICHARD Andre43BEL1:15:581:16:254:45 12.64230552FLÉMALLE
81.2312NOKIN Xavier40BEL1:15:571:16:284:46 12.63231551
82.2344JANIN Nicolas47BELSERAING RU1:16:091:16:304:46 12.63234546LIEGE
83.1269DEPOORTER Yves41BELIBM SPORT1:16:421:17:024:48 12.54242533VILVOORDE
84.1229HOUSSIER Didier41BEL1:16:431:17:024:48 12.54243532VILVOORDE
85.1960SPLINGARD Jean Claude48BELACLO1:16:451:17:084:48 12.52246529HAINE-SAINT-PAUL
86.2267COLLIN Christian45BELCAP NRB1:16:491:17:134:48 12.51249527BEYNE-HEUSAY
87.118BOURLEAU Christian47BELSAINT BERN1:17:071:17:184:49 12.49250521MANAGE
88.1160DEWART Henri47BELURCL1:17:151:17:424:50 12.43257515LIEGE
89.2032MALORGIO Attilio47BELACCO1:17:171:17:504:51 12.41258514JUMET
90.612MEUWIS Joel44BEL1:17:281:17:524:51 12.40259510JODOIGNE
91.2293WIJCKMANS Jeroen44NLDMAASRUNNERS1:17:471:18:224:53 12.32273496GRONSVELD
92.2222LOHEST Alain47BEL1:18:191:18:364:53 12.29276486LIEGE
93.1356GODEFROID Gaetan46BELARCH1:18:171:18:434:54 12.27278486CINEY-LEIGNON
94.2244VANHOUTTE John43BELRIWA1:18:401:18:594:55 12.23280479RIXENSART
95.225OLIVIER Pierre48BEL1:18:171:19:074:55 12.21281484HANEFFE
96.1768DENEFFE Philippe45BELJCHOUYET1:18:361:19:194:56 12.18284477HOUYET
97.2245THEUNISSEN Patrice40BEL1:18:541:19:414:58 12.12288470SAINT-SERVAIS
98.888RUBINO Michel46BELUACRRTC1:19:001:19:464:58 12.11290467CHATELET
99.1551SAUCIN Luc45BELUACRRTC1:19:081:19:534:58 12.09294462CHATELET
100.434WAUTERS Pierrot49BEL1:19:381:20:114:59 12.05300451CRISNEE
101.324VANDEWALLE Marc49BELJCOOSTER1:20:041:20:134:59 12.04301445SCHELDEWINDEKE
102.777KINET Serge48BELJOGGPLUS1:19:531:20:305:01 12.00306444FLEMALLE-HAUTE
103.1878ROMAIN Bernard49BELJAMES1:20:291:20:425:01 11.97308434CHASTRE
104.2295MOKHLES Fathi47BEL1:21:041:21:085:03 11.90311423NEUVILLE-EN-CONDROZ
105.262AZZARELLI Jean-Claude42BELACLO1:20:411:21:095:03 11.90312428LA LOUVIERE
106.1912COLSON Pascal44BELACLO1:21:111:21:115:03 11.90313420MANAGE
107.2033DIGIUGNO Cateno45BELUACDILAVILE1:21:111:21:245:04 11.87316419GILLY
108.2360FUKS Damien40BEL1:21:021:21:275:04 11.86317420LIÈGE
109.258KLEKER Yves44BELDAMPHRC1:20:491:21:275:04 11.86318422CHATILLON
110.2352SPELGATTI Rafaël41BEL1:20:461:21:295:04 11.85319423JUPILLE
111.455DE LAMOTTE Bernard42BEL1:21:071:21:305:04 11.85320417VYLE-THAROUL
112.192GEUSKENS J.Marc42BEL1:21:161:21:305:04 11.85321414BRUXELLES
113.377SPRIMONT Olivier43BEL1:21:051:21:395:05 11.83323415UCCLE
114.1202DEBLAERE Paul41BELRIWA1:21:361:21:515:06 11.80326406RIXENSART
115.500SCHUYTEN Aime48BELANTILOB1:21:251:22:065:07 11.76332405HAMME-MILLE
116.2306LIZIN Patrick45BEL1:21:401:22:085:07 11.76334400NEUPRÉ
117.2261VOLANTE Luciano44BELAMAS RUNNERS1:21:461:22:115:07 11.75337397MILMORT
118.1054FALLAIS Eric40BEL1:22:111:22:335:08 11.70341388TIHANGE
119.2015REINARTZ Wilfried47BEL1:22:311:22:525:09 11.66345381EUPEN
120.1114DEBREUX Didier42BEL1:22:221:22:545:10 11.65348381MARBEHAN
121.2029GERIMONT J-Michel49BEL1:22:251:22:555:10 11.65350379MODAVE
122.2237GIRAUD Denis46FRA1:23:041:23:185:11 11.59357365GIVET
123.1006PIRSON Georges43BELHRC1:23:101:23:395:12 11.55360362LIBRAMONT
124.2269COONEN Christian47BELOVCCL1:23:561:24:225:15 11.45368346GRÂCE-HOLLOGNE
125.277HEYNEN William49BEL1:24:241:24:255:15 11.44369339NANDRIN
126.312OOSTERS Michel46BELENJWOL1:24:321:24:505:17 11.38374334WOLUWE ST PIERRE
127.2337THIRION Daniel44BEL1:24:281:25:195:19 11.32379332HANEFFE
128.1958POELMANS Dominique45BELRCNAMUR1:24:491:25:205:19 11.32380326BOUGE
129.2279BENNANI Nicolas46BEL1:25:281:25:565:21 11.24387313BRASSCHAAT
130.522VANLOO Marc47BELRONVAU1:25:341:26:085:22 11.21390309WAVRES
131.2021VANVELTHEM Bernard49BEL1:26:101:26:245:23 11.18394299SPY
132.395DEBATY Yves43BELVICO20001:25:431:26:275:23 11.17395304AMAY
133.2258BOELEN Johan43BEL1:26:261:26:325:23 11.16396294SINT-TRUIDEN
134.2291WINKELMOLEN Thijs48BELAV MAASRUN1:26:121:26:465:24 11.13399295EIJSDEN
135.2334THISSEN Michel45BELJCR1:26:081:26:575:25 11.11400295ENSIVAL
135.2333THISSEN Philippe44BELJCR1:26:081:26:575:25 11.11400295THEUX
137.2037AZZOLINI Adriano44BEL1:26:401:26:595:25 11.10402286FLÉMALLE
138.2349ROSSION Bernard44BEL1:26:441:27:145:26 11.07404284CRISNEE
139.1921WOUTERS Jean-Marc47BEL1:27:141:27:565:28 10.98413272NEUPRE
140.306RODRIGUEZ Pedro48BELMPW1:28:011:28:265:30 10.92416260VERVIERS
141.249PIRSON Patrice49BELJCCS1:29:571:30:375:38 10.66424229SART-CUSTINNE
142.206MERCENIER Maurice47BELAMAY1:31:081:31:465:43 10.52438205AMAY
143.2229VARLET Stephan48BELLE JOUR VERVIERS1:31:201:31:485:43 10.52439201HEUSY
144.2238BAUDUIN Bernard44FRA1:31:451:31:595:43 10.50440195GIVET
145.122DUPUIS J.Marie48BELSAINT BERN1:32:271:32:385:46 10.43444184MANAGE
146.2326MIELE Xxx47BEL1:32:251:33:105:48 10.37451180JEMEPPE
147.1831LOMBET Benoit48BELARCH1:34:141:34:545:54 10.18460152MIECRET
148.2319NIMCZUK Michel46BEL1:35:591:36:366:01 10.00472122SAIVE
149.1053MICHEL Daniel48BELRIWA1:36:521:37:086:03 9.94477108RIXENSART
150.2204DAOUST Yves45BEL1:37:351:37:536:05 9.8748197SERAING
151.1277STEENPUT Luc47BEL1:37:521:38:356:08 9.8048691NETHEN
152.119TRULLEMANS Aime47BELSAINT BERN1:39:331:39:446:12 9.6849068MANAGE
153.2301VOSSEN Daniel47BEL1:40:221:41:116:18 9.5549357LIÈGE
154.208BOUTEFEU Jacques46BELESMRRTC1:40:491:41:246:18 9.5249550MONTIGNIES-SUR-SAMBRE
155.2317ALOFS Pierre48BEL1:42:461:43:256:26 9.3450025ANGLEUR
156.2280LEWANDOWSKI Paul44BELC.M.I.1:46:131:46:586:39 9.035065HANEFFE
157.428FONTAINE Jacques49BEL1:51:471:52:236:59 8.595093LIEGE
DNF156DUMONT J.Luc49BELACLOST BERNARDLA LOUVIERE
DNF1991SPLINGARD Dominique46BELNACAMIS FBHAINE-ST-PIERRE
DNF: abandon; DSQ: disqualifié; Vitesse en km/h
Page: [1]